Elefsis, Greece

3:49 AM EEST on May 23, 2017 (GMT +0300)
Elefsis Air Base

Weather History for LGEL - November, 2010

Change the Weather History Date:

Wednesday, November 3, 2010

  Actual Average Record
Temperature  
Mean Temperature 60 °F -  
Max Temperature 68 °F 62 °F 82 °F (2008)
Min Temperature 53 °F 48 °F 42 °F (2006)
Degree Days  
Heating Degree Days 4    
Growing Degree Days 10 (Base 50)    
Moisture  
Dew Point 53 °F    
Average Humidity 76    
Maximum Humidity 88    
Minimum Humidity 60    
Precipitation  
Precipitation 0.00 in - - ()
Sea Level Pressure  
Sea Level Pressure 30.14 in    
Wind  
Wind Speed 3 mph ()    
Max Wind Speed 7 mph    
Max Gust Speed -    
Visibility 6.2 miles    
Events      
Averages and records for this station are not official NWS values.
T = Trace of Precipitation, MM = Missing Value Source: Averaged Metar Reports

Daily Weather History Graph

Daily Weather History Graph

Search for Another Location

Airport or City:

Trip Planner

Search our weather history database for the weather conditions in past years. The results will help you decide how hot, cold, wet, or windy it might be!

Date:

Astronomy

Nov. 03, 2010 Rise Set
Actual Time 6:53 AM EET 5:24 PM EET
Civil Twilight 6:25 AM EET 5:52 PM EET
Nautical Twilight 5:54 AM EET 6:23 PM EET
Astronomical Twilight 5:24 AM EET 6:54 PM EET
Moon 3:32 AM EET (11/3) 3:22 PM EET (11/3)
Length of Visible Light 11h 26m
Length of Day
10h 31m
Waning Crescent, 11% of the Moon is Illuminated
Nov 3
Waning Crescent
Nov 6
New
Nov 13
First Quarter
Nov 21
Full
Nov 28
Last Quarter

Hourly Weather History & Observations

Time (EET) Temp. Dew Point Humidity Pressure Visibility Wind Dir Wind Speed Gust Speed Precip Events Conditions
12:20 AM 59.0 °F 51.8 °F 77% 30.09 in 6.2 mi Variable 3.5 mph - N/A   Mostly Cloudy
12:50 AM 57.2 °F 51.8 °F 82% 30.09 in 6.2 mi Variable 3.5 mph - N/A   Mostly Cloudy
1:20 AM 57.2 °F 51.8 °F 82% 30.09 in 6.2 mi Variable 3.5 mph - N/A   Mostly Cloudy
1:50 AM 57.2 °F 51.8 °F 82% 30.09 in 6.2 mi Calm Calm - N/A   Mostly Cloudy
2:20 AM 57.2 °F 51.8 °F 82% 30.09 in 6.2 mi Variable 3.5 mph - N/A   Mostly Cloudy
2:50 AM 59.0 °F 51.8 °F 77% 30.09 in 6.2 mi Calm Calm - N/A   Mostly Cloudy
3:20 AM 57.2 °F 51.8 °F 82% 30.09 in 6.2 mi Variable 3.5 mph - N/A   Mostly Cloudy
3:50 AM 59.0 °F 51.8 °F 77% 30.09 in 6.2 mi Calm Calm - N/A   Mostly Cloudy
4:20 AM 57.2 °F 51.8 °F 82% 30.09 in 6.2 mi Calm Calm - N/A   Mostly Cloudy
4:50 AM 57.2 °F 51.8 °F 82% 30.12 in 6.2 mi Variable 2.3 mph - N/A   Mostly Cloudy
5:20 AM 57.2 °F 51.8 °F 82% 30.12 in 6.2 mi Variable 2.3 mph - N/A   Mostly Cloudy
5:50 AM 55.4 °F 51.8 °F 88% 30.12 in 6.2 mi Variable 2.3 mph - N/A   Mostly Cloudy
6:20 AM 55.4 °F 50.0 °F 82% 30.12 in 6.2 mi Variable 2.3 mph - N/A   Scattered Clouds
6:50 AM 55.4 °F 50.0 °F 82% 30.09 in 6.2 mi North 4.6 mph - N/A   Partly Cloudy
7:20 AM 53.6 °F 50.0 °F 88% 30.09 in 6.2 mi North 4.6 mph - N/A   Partly Cloudy
7:50 AM 55.4 °F 51.8 °F 88% 30.12 in 6.2 mi North 4.6 mph - N/A   Partly Cloudy
8:20 AM 57.2 °F 51.8 °F 82% 30.15 in 6.2 mi Variable 3.5 mph - N/A   Partly Cloudy
8:50 AM 59.0 °F 53.6 °F 82% 30.15 in 5.6 mi North 4.6 mph - N/A   Partly Cloudy
9:20 AM 62.6 °F 53.6 °F 72% 30.15 in 5.6 mi Calm Calm - N/A   Scattered Clouds
9:50 AM 62.6 °F 51.8 °F 68% 30.15 in 6.2 mi Calm Calm - N/A   Mostly Cloudy
10:20 AM 64.4 °F 51.8 °F 64% 30.15 in 6.2 mi Variable 3.5 mph - N/A   Mostly Cloudy
10:50 AM 64.4 °F 51.8 °F 64% 30.15 in 6.2 mi Variable 2.3 mph - N/A   Mostly Cloudy
11:20 AM 64.4 °F 51.8 °F 64% 30.15 in 6.2 mi Variable 2.3 mph - N/A   Mostly Cloudy
11:50 AM 66.2 °F 51.8 °F 60% 30.15 in 6.2 mi Variable 3.5 mph - N/A   Mostly Cloudy
12:20 PM 66.2 °F 53.6 °F 64% 30.15 in 6.2 mi SW 4.6 mph - N/A   Mostly Cloudy
12:50 PM 66.2 °F 53.6 °F 64% 30.15 in 6.2 mi SW 4.6 mph - N/A   Mostly Cloudy
1:20 PM 66.2 °F 53.6 °F 64% 30.15 in 6.2 mi SW 4.6 mph - N/A   Mostly Cloudy
1:50 PM 68.0 °F 53.6 °F 60% 30.15 in 6.2 mi Variable 3.5 mph - N/A   Mostly Cloudy
2:20 PM 68.0 °F 55.4 °F 64% 30.15 in 6.2 mi SSE 4.6 mph - N/A   Mostly Cloudy
2:50 PM 68.0 °F 55.4 °F 64% 30.15 in 6.2 mi SSW 6.9 mph - N/A   Scattered Clouds
3:20 PM 68.0 °F 55.4 °F 64% 30.15 in 6.2 mi South 5.8 mph - N/A   Partly Cloudy
3:50 PM 68.0 °F 55.4 °F 64% 30.15 in 6.2 mi Calm Calm - N/A   Partly Cloudy
4:20 PM 68.0 °F 55.4 °F 64% 30.15 in 6.2 mi Calm Calm - N/A   Partly Cloudy
4:50 PM 66.2 °F 55.4 °F 68% 30.15 in 6.2 mi SSW 4.6 mph - N/A   Partly Cloudy
5:20 PM 64.4 °F 55.4 °F 73% 30.15 in 6.2 mi SSW 4.6 mph - N/A   Partly Cloudy
5:50 PM 64.4 °F 55.4 °F 73% 30.15 in 6.2 mi Variable 3.5 mph - N/A   Scattered Clouds
6:20 PM 64.4 °F 55.4 °F 73% 30.15 in 6.2 mi Variable 2.3 mph - N/A   Scattered Clouds
6:50 PM 64.4 °F 55.4 °F 73% 30.18 in 6.2 mi Variable 3.5 mph - N/A   Scattered Clouds
7:20 PM 64.4 °F 55.4 °F 73% 30.18 in 6.2 mi Variable 2.3 mph - N/A   Scattered Clouds
7:50 PM 62.6 °F 55.4 °F 77% 30.18 in 6.2 mi Variable 3.5 mph - N/A   Mostly Cloudy
8:20 PM 59.0 °F 53.6 °F 82% 30.18 in 6.2 mi Variable 3.5 mph - N/A   Mostly Cloudy
8:50 PM 59.0 °F 55.4 °F 88% 30.18 in 6.2 mi NNW 5.8 mph - N/A   Mostly Cloudy
9:20 PM 59.0 °F 55.4 °F 88% 30.18 in 6.2 mi NNW 5.8 mph - N/A   Mostly Cloudy
9:50 PM 59.0 °F 55.4 °F 88% 30.21 in 6.2 mi North 5.8 mph - N/A   Mostly Cloudy
10:20 PM 59.0 °F 55.4 °F 88% 30.21 in 6.2 mi North 4.6 mph - N/A   Mostly Cloudy
10:50 PM 59.0 °F 53.6 °F 82% 30.21 in 6.2 mi North 5.8 mph - N/A   Scattered Clouds
11:20 PM 59.0 °F 53.6 °F 82% 30.21 in 6.2 mi North 4.6 mph - N/A   Scattered Clouds
11:50 PM 57.2 °F 51.8 °F 82% 30.21 in 6.2 mi Calm Calm - N/A   Partly Cloudy